Regional Weather Roundup
Issued by NWS Upton, NY

Current Version | Previous Version | Text Only | Print | Product List | Glossary On
Versions: 1 2 3 4 5 6 7 8 9 10 11 12 13 14 15 16 17 18 19 20 21 22 23 24 25 26 27 28 29 30 31 32 33 34 35 36 37 38 39 40 41 42 43 44 45 46 47 48 49 50
879 ASUS41 KOKX 071404 RWROKX REGIONAL WEATHER ROUNDUP NATIONAL WEATHER SERVICE NEW YORK NY 900 AM EST SUN FEB 07 2016 NOTE: "FAIR" INDICATES FEW OR NO CLOUDS BELOW 12,000 FEET WITH NO SIGNIFICANT WEATHER AND/OR OBSTRUCTIONS TO VISIBILITY. NYZ071-072-176-178-NJZ106-104-071500- NEW YORK CITY METRO AREA CITY SKY/WX TMP DP RH WIND PRES REMARKS CENTRAL PARK CLOUDY 37 20 50 CALM 30.20F LAGUARDIA APRT CLOUDY 38 23 55 CALM 30.18F KENNEDY INTL MOSUNNY 38 28 67 W3 30.20F NEWARK/LIBERTY MOSUNNY 36 27 69 CALM 30.19F BRNX BOT. GARD N/A 39 23 52 W5 30.19R TETERBORO SUNNY 35 24 64 CALM 30.18F $$ NYZ177-179-078>081-071500- LONG ISLAND NEW YORK CITY SKY/WX TMP DP RH WIND PRES REMARKS FARMINGDALE MOSUNNY 33 25 72 CALM 30.18F ISLIP MOSUNNY 31 30 96 CALM 30.16F SHIRLEY MOSUNNY 30 29 96 NW3 30.18F RIVERHEAD N/A 32 27 80 NW1 30.21F WESTHAMPTON SUNNY 27 32 100 CALM 30.19F EAST HAMPTON SUNNY 32 28 86 CALM 30.17F MONTAUK POINT N/A 38 29 70 W7 30.19F WCI 33 $$ NYZ052-065-067-071500- HUDSON VALLEY CITY SKY/WX TMP DP RH WIND PRES REMARKS WHITE PLAINS MOSUNNY 30 22 72 CALM 30.15S NEWBURGH SUNNY 34 23 64 CALM 30.16S MONTGOMERY SUNNY 32 25 75 SW8 30.15S WCI 25 POUGHKEEPSIE SUNNY 32 23 69 CALM 30.16S ALBANY SUNNY 33 21 61 S7 30.15F WCI 27 $$ NJZ001-105-106-008-010-013-015-019>022-104-071500- NEW JERSEY CITY SKY/WX TMP DP RH WIND PRES REMARKS NEWARK/LIBERTY MOSUNNY 36 27 69 CALM 30.19F TETERBORO SUNNY 35 24 64 CALM 30.18F CALDWELL SUNNY 29 22 75 CALM 30.19S MORRISTOWN SUNNY 27 27 100 CALM 30.18F SOMERVILLE SUNNY 28 24 85 CALM 30.18S SUSSEX SUNNY 28 23 81 CALM 30.15F ANDOVER N/A 27 24 89 CALM 30.16F TRENTON SUNNY 31 26 82 CALM 30.19R MILLVILLE MOSUNNY 36 29 75 VRB3 30.18F ATLANTIC CITY MOSUNNY 33 29 85 N5 30.18F WCI 29 WRIGHTSTOWN SUNNY 30 30 100 CALM 30.16F TOMS RIVER SUNNY 27 23 86 CALM 30.19S BELMAR SUNNY 34 21 60 NW5 30.18S WCI 30 $$ PAZ047>061-062-071-071500- EASTERN PENNSYLVANIA CITY SKY/WX TMP DP RH WIND PRES REMARKS PHILADELPHIA CLOUDY 35 28 75 CALM 30.20S ALLENTOWN SUNNY 29 22 75 CALM 30.17F SCRANTON MOSUNNY 29 20 69 CALM 30.15R $$ CTZ002-004>006-009-010-012-RIZ004-006-007-MAZ004-011-015-071500- SOUTHERN NEW ENGLAND IN CT CITY SKY/WX TMP DP RH WIND PRES REMARKS BRADLEY INTL MOSUNNY 27 21 78 CALM 30.17S HARTFORD SUNNY 30 26 85 CALM 30.19R DANBURY SUNNY 27 19 72 E3 30.17F WTRBRY/OXFORD SUNNY 30 16 55 NW3 30.15S BRIDGEPORT SUNNY 31 22 69 CALM 30.19R MERIDEN SUNNY 24 22 91 CALM 30.18F FOG NEW HAVEN SUNNY 27 25 92 S3 30.19R CHESTER FAIR 32 23 69 CALM 30.17S GROTON SUNNY 34 28 79 CALM 30.19R WILLIMANTIC SUNNY 22 18 85 CALM 30.19S IN RI CITY SKY/WX TMP DP RH WIND PRES REMARKS PROVIDENCE MOSUNNY 33 23 66 CALM 30.19S BLOCK ISLAND MOSUNNY 39 28 65 W7 30.18S WCI 34 WESTERLY SUNNY 29 27 92 CALM 30.19S IN MA CITY SKY/WX TMP DP RH WIND PRES REMARKS BOSTON MOSUNNY 31 22 68 SW5 30.17F WCI 27 WORCESTER SUNNY 32 19 58 W7 30.11F WCI 26 WESTFIELD SUNNY 24 20 84 CALM 30.16F PROVINCETOWN SUNNY 37 28 70 W9 30.19F WCI 30 NANTUCKET SUNNY 41 30 65 W7 30.19R $$ ANZ330-335-338-340-345-350-353-355-071500- COASTAL MARINE OBSERVATIONS STATION/POSITION TIME SKY/WX TEMP WIND PRES VSBY WAVE AIR SEA DIR/SP/G HT/PER (UTC) (F) (DEG/KT/KT) (MB) (MI) (FT/S) NY HARB ENTRANCE 1250 39 42 310/ 6/ 8 1021.9 2/10 4S FIRE IS NOT AVBL 20S FIRE ISLAND 1250 40 43 310/ 8/ 8 1022.3 2/11 GREAT SOUTH BAY NOT AVBL 23SW MTP 1350 40 45 290/ 6/ 8 1022.0 3/ 5 HUDSON CANYON 1250 43 50 1022.6 2/10 KINGS POINT 1300 34 38 200/ 3/ 4 1021.9 EXECUTION ROCKS NOT AVBL CENTRAL LI SOUND 1300 37 280/ 8/ 10 N/A 1 EASTERN LI SOUND 1300 39 42 310/ 6/ 10 N/A ROBBINS REEF 1300 33 260/ 5/ 7 1021.6 $$ >>>>>>>>>>>>>>>>>>>>>>>>>>>> KEY <<<<<<<<<<<<<<<<<<<<<<<<<<< > < > SKY/WX - SKY CONDITION/PRESENT WEATHER < > TMP - TEMPERATURE IN FAHRENHEIT < > DP - DEWPOINT IN FAHRENHEIT < > RH - RELATIVE HUMIDITY IN PERCENT < > WIND - DIRECTION AND SPEED IN MPH < > PRES - MEAN SEA LEVEL PRESSURE IN INCHES OF HG < > WCI - WIND CHILL INDEX < > VSB - VISIBILITY IN MILES < > HX - HEAT INDEX < > TC - TEMPERATURE IN CELSIUS < > VRB - VARIABLE WIND DIRECTION < > < >>>>>>>>>>>>>>>>>>>>>>>>>>>> KEY <<<<<<<<<<<<<<<<<<<<<<<<<<<

USA.gov is the U.S. government's official web portal to all federal, state and local government web resources and services.